Weather History for KGCN - April, 2013

Change the Weather History Date:

Tuesday, April 16, 2013

  Actual Average Record
Temperature  
Mean Temperature 44 °F -  
Max Temperature 54 °F 56 °F 74 °F (1985)
Min Temperature 32 °F 23 °F 10 °F (2015)
Degree Days  
Heating Degree Days 22    
Moisture  
Dew Point 23 °F    
Average Humidity 48    
Maximum Humidity 67    
Minimum Humidity 18    
Precipitation  
Precipitation 0.00 in - - ()
Sea Level Pressure  
Sea Level Pressure 29.62 in    
Wind  
Wind Speed 22 mph (SW)    
Max Wind Speed 33 mph    
Max Gust Speed 46 mph    
Visibility 10 miles    
Events      
Averages and records for this station are not official NWS values.
T = Trace of Precipitation, MM = Missing Value Source: NWS Daily Summary

Daily Weather History Graph

Daily Weather History Graph

Search for Another Location

Airport or City:

Trip Planner

Search our weather history database for the weather conditions in past years. The results will help you decide how hot, cold, wet, or windy it might be!

Date:

Astronomy

Apr. 16, 2013 Rise Set
Actual Time 5:53 AM MST 7:03 PM MST
Civil Twilight 5:27 AM MST 7:29 PM MST
Nautical Twilight 4:55 AM MST 8:01 PM MST
Astronomical Twilight 4:23 AM MST 8:34 PM MST
Moon 10:20 AM MST (4/16) No Moon Set
Length of Visible Light 14h 02m
Length of Day
13h 09m
Waxing Crescent, 34% of the Moon is Illuminated
Apr 16
Waxing Crescent
Apr 18
First Quarter
Apr 25
Full
May 2
Last Quarter
May 9
New

Hourly Weather History & Observations

Time (MST) Temp. Windchill Dew Point Humidity Pressure Visibility Wind Dir Wind Speed Gust Speed Precip Events Conditions
12:43 AM 46.4 °F 37.7 °F 32.0 °F 57% 29.69 in 10.0 mi SSW 26.5 mph 38.0 mph N/A   Mostly Cloudy
12:54 AM 46.0 °F 37.4 °F 33.1 °F 61% 29.47 in 10.0 mi SSW 25.3 mph 40.3 mph N/A   Overcast
1:54 AM 45.0 °F 36.0 °F 33.1 °F 63% 29.49 in 10.0 mi SSW 25.3 mph 40.3 mph N/A   Overcast
2:54 AM 44.1 °F 35.7 °F 33.1 °F 65% 29.52 in 10.0 mi SW 20.7 mph 32.2 mph N/A   Overcast
3:15 AM 42.8 °F 34.0 °F 32.0 °F 66% 29.72 in 10.0 mi SSW 20.7 mph 32.2 mph N/A   Overcast
3:54 AM 42.1 °F 32.6 °F 28.9 °F 60% 29.52 in 10.0 mi SSW 23.0 mph 32.2 mph N/A   Scattered Clouds
5:54 AM 39.9 °F 30.2 °F 28.9 °F 65% 29.55 in 10.0 mi SW 20.7 mph 34.5 mph N/A   Mostly Cloudy
6:09 AM 39.2 °F 29.8 °F 28.4 °F 65% 29.73 in 10.0 mi SSW 18.4 mph 31.1 mph N/A   Overcast
6:54 AM 39.9 °F 30.2 °F 28.9 °F 65% 29.58 in 10.0 mi SSW 20.7 mph 34.5 mph N/A   Overcast
7:54 AM 42.1 °F 32.3 °F 28.0 °F 58% 29.59 in 10.0 mi SW 24.2 mph 36.8 mph N/A   Overcast
8:54 AM 44.1 °F 34.0 °F 26.1 °F 49% 29.58 in 10.0 mi SSW 29.9 mph 41.4 mph N/A   Mostly Cloudy
9:52 AM 46.4 °F 36.7 °F 24.8 °F 43% 29.74 in 10.0 mi SSW 33.4 mph 42.6 mph N/A   Mostly Cloudy
9:54 AM 46.0 °F 36.7 °F 24.1 °F 42% 29.58 in 10.0 mi SW 29.9 mph 42.6 mph N/A   Mostly Cloudy
10:54 AM 48.9 °F - 23.0 °F 36% 29.58 in 10.0 mi SW 27.6 mph 46.0 mph N/A   Mostly Cloudy
11:54 AM 50.0 °F - 23.0 °F 35% 29.58 in 10.0 mi SW 31.1 mph 44.9 mph N/A   Scattered Clouds
12:54 PM 51.1 °F - 23.0 °F 33% 29.56 in 10.0 mi SSW 26.5 mph 42.6 mph N/A   Overcast
1:54 PM 50.0 °F - 18.0 °F 28% 29.57 in 10.0 mi SW 26.5 mph 38.0 mph N/A   Mostly Cloudy
2:54 PM 54.0 °F - 10.9 °F 18% 29.56 in 10.0 mi SW 28.8 mph 42.6 mph N/A   Scattered Clouds
3:54 PM 50.0 °F - 15.1 °F 25% 29.58 in 10.0 mi WSW 21.9 mph 32.2 mph N/A   Mostly Cloudy
4:54 PM 48.0 °F - 15.1 °F 27% 29.60 in 10.0 mi WSW 21.9 mph 39.1 mph N/A   Overcast
5:54 PM 45.0 °F 38.9 °F 10.9 °F 25% 29.64 in 10.0 mi WSW 12.7 mph 24.2 mph N/A   Overcast
6:54 PM 43.0 °F 36.0 °F 3.9 °F 20% 29.67 in 10.0 mi West 13.8 mph 21.9 mph N/A   Overcast
7:54 PM 37.9 °F 34.4 °F 19.9 °F 48% 29.71 in 10.0 mi Variable 4.6 mph - N/A   Overcast
8:54 PM 35.1 °F 32.2 °F 21.9 °F 59% 29.73 in 10.0 mi NW 3.5 mph - N/A   Overcast
9:54 PM 34.0 °F 29.8 °F 24.1 °F 67% 29.74 in 10.0 mi Variable 4.6 mph - N/A   Overcast
10:54 PM 33.1 °F 27.7 °F 21.9 °F 64% 29.73 in 10.0 mi NNW 5.8 mph - N/A   Overcast
11:54 PM 32.0 °F - 19.9 °F 61% 29.73 in 10.0 mi Calm Calm - N/A   Overcast